When you browse on this site, cookies collect data to enhance your experience and personalize the content and advertising you see.
Visit our Privacy Policy to learn more. By continuing to use the site, you agree to this use of cookies and data.
  • In Denmark
  • List of Countries
  • For 7 days
  • Water Temperature
  • Satellite Maps
  • Weather Map
  • Weather Widgets
  • user-avatar
    Login

    Hourly Weather Santiago de Compostela

    Today, 26 March, Tuesday

    Time Temperature Precipitation Wind Pressure Humidity
    00:00 +8°C° 0 mm 2 mps 745 mmHg 59%
    01:00 +7°C° 0 mm 2 mps 744 mmHg 62%
    02:00 +7°C° 0 mm 2 mps 744 mmHg 64%
    03:00 +7°C° 0 mm 2 mps 744 mmHg 67%
    04:00 +6°C° 0 mm 2 mps 744 mmHg 70%
    05:00 +6°C° 0 mm 2 mps 744 mmHg 74%
    06:00 +7°C° 0 mm 2 mps 744 mmHg 69%
    07:00 +9°C° 0 mm 2 mps 744 mmHg 64%
    08:00 +12°C° 0 mm 2 mps 744 mmHg 59%
    09:00 +14°C° 0 mm 2 mps 743 mmHg 51%
    10:00 +17°C° 0 mm 3 mps 743 mmHg 44%
    11:00 +19°C° 0 mm 3 mps 743 mmHg 36%
    12:00 +20°C° 0 mm 3 mps 743 mmHg 34%
    13:00 +21°C° 0 mm 3 mps 743 mmHg 32%
    14:00 +22°C° 0 mm 3 mps 742 mmHg 29%
    15:00 +21°C° 0 mm 3 mps 742 mmHg 36%
    16:00 +19°C° 0 mm 3 mps 742 mmHg 43%
    17:00 +17°C° 0 mm 3 mps 742 mmHg 50%
    18:00 +15°C° 0 mm 2 mps 743 mmHg 57%
    19:00 +12°C° 0 mm 2 mps 743 mmHg 64%
    20:00 +9°C° 0 mm 2 mps 744 mmHg 71%
    21:00 +8°C° 0 mm 2 mps 744 mmHg 73%
    22:00 +8°C° 0 mm 2 mps 744 mmHg 74%
    23:00 +7°C° 0 mm 2 mps 745 mmHg 75%

    Tomorrow, 27 March, Wednesday

    Time Temperature Precipitation Wind Pressure Humidity
    00:00 +7°C° 0 mm 2 mps 745 mmHg 74%
    01:00 +7°C° 0 mm 2 mps 745 mmHg 73%
    02:00 +6°C° 0 mm 2 mps 745 mmHg 72%
    03:00 +6°C° 0 mm 2 mps 745 mmHg 72%
    04:00 +5°C° 0 mm 2 mps 745 mmHg 72%
    05:00 +6°C° 0 mm 1 mps 745 mmHg 71%
    06:00 +8°C° 0 mm 1 mps 746 mmHg 63%
    07:00 +10°C° 0 mm 1 mps 746 mmHg 54%
    08:00 +12°C° 0 mm 1 mps 747 mmHg 46%
    09:00 +15°C° 0 mm 1 mps 747 mmHg 39%
    10:00 +19°C° 0 mm 1 mps 747 mmHg 32%
    11:00 +22°C° 0 mm 1 mps 747 mmHg 26%
    12:00 +23°C° 0 mm 1 mps 747 mmHg 26%
    13:00 +23°C° 0 mm 1 mps 747 mmHg 26%
    14:00 +24°C° 0 mm 1 mps 747 mmHg 26%
    15:00 +22°C° 0 mm 1 mps 747 mmHg 33%
    16:00 +21°C° 0 mm 1 mps 747 mmHg 41%
    17:00 +19°C° 0 mm 1 mps 747 mmHg 48%
    18:00 +15°C° 0 mm 1 mps 747 mmHg 53%
    19:00 +12°C° 0 mm 1 mps 747 mmHg 58%
    20:00 +10°C° 0 mm 1 mps 748 mmHg 63%
    21:00 +9°C° 0 mm 1 mps 748 mmHg 66%
    22:00 +8°C° 0 mm 1 mps 748 mmHg 70%
    23:00 +7°C° 0 mm 1 mps 748 mmHg 73%

    Day after tomorrow, 28 March, Thursday

    Time Temperature Precipitation Wind Pressure Humidity
    00:00 +7°C° 0 mm 1 mps 748 mmHg 76%
    01:00 +7°C° 0 mm 1 mps 748 mmHg 80%
    02:00 +6°C° 0 mm 1 mps 748 mmHg 83%
    03:00 +6°C° 0 mm 1 mps 748 mmHg 83%
    04:00 +6°C° 0 mm 1 mps 748 mmHg 84%
    05:00 +6°C° 0 mm 1 mps 748 mmHg 84%
    06:00 +8°C° 0 mm 1 mps 748 mmHg 75%
    07:00 +11°C° 0 mm 1 mps 749 mmHg 65%
    08:00 +13°C° 0 mm 1 mps 749 mmHg 55%
    09:00 +16°C° 0 mm 1 mps 749 mmHg 47%
    10:00 +20°C° 0 mm 1 mps 749 mmHg 40%
    11:00 +23°C° 0 mm 1 mps 749 mmHg 33%
    12:00 +24°C° 0 mm 1 mps 748 mmHg 31%
    13:00 +22°C° 0 mm 0 mps 748 mmHg 30%
    14:00 +23°C° 0 mm 0 mps 747 mmHg 28%
    15:00 +21°C° 0 mm 0 mps 747 mmHg 37%
    16:00 +19°C° 0 mm 0 mps 747 mmHg 46%
    17:00 +19°C° 0 mm 1 mps 746 mmHg 55%
    18:00 +16°C° 0 mm 1 mps 747 mmHg 65%
    19:00 +13°C° 0 mm 1 mps 747 mmHg 74%
    20:00 +11°C° 0 mm 1 mps 747 mmHg 84%
    21:00 +10°C° 0 mm 1 mps 747 mmHg 87%
    22:00 +10°C° 0 mm 1 mps 747 mmHg 91%
    23:00 +9°C° 0 mm 1 mps 746 mmHg 94%

    29 March, Friday

    Time Temperature Precipitation Wind Pressure Humidity
    00:00 +9°C° 0 mm 1 mps 746 mmHg 94%
    01:00 +8°C° 0 mm 1 mps 746 mmHg 93%
    02:00 +8°C° 0 mm 1 mps 745 mmHg 92%
    03:00 +8°C° 0 mm 1 mps 745 mmHg 90%
    04:00 +8°C° 0 mm 1 mps 745 mmHg 87%
    05:00 +8°C° 0 mm 1 mps 745 mmHg 85%
    06:00 +11°C° 0 mm 1 mps 745 mmHg 74%
    07:00 +13°C° 0 mm 1 mps 745 mmHg 63%
    08:00 +16°C° 0 mm 1 mps 745 mmHg 52%
    09:00 +19°C° 0 mm 1 mps 745 mmHg 46%
    10:00 +21°C° 0 mm 1 mps 745 mmHg 40%
    11:00 +23°C° 0 mm 1 mps 745 mmHg 34%
    12:00 +23°C° 0 mm 1 mps 744 mmHg 35%
    13:00 +23°C° 0 mm 2 mps 744 mmHg 36%
    14:00 +23°C° 0 mm 2 mps 743 mmHg 36%
    15:00 +21°C° 0 mm 1 mps 743 mmHg 44%
    16:00 +20°C° 0 mm 1 mps 743 mmHg 51%
    17:00 +18°C° 0 mm 1 mps 743 mmHg 58%
    18:00 +15°C° 0 mm 1 mps 743 mmHg 66%
    19:00 +12°C° 0 mm 0 mps 743 mmHg 74%
    20:00 +9°C° 0 mm 0 mps 743 mmHg 81%
    21:00 +9°C° 0 mm 0 mps 743 mmHg 82%
    22:00 +9°C° 0 mm 0 mps 743 mmHg 83%
    23:00 +9°C° 0 mm 0 mps 743 mmHg 84%

    30 March, Saturday

    Time Temperature Precipitation Wind Pressure Humidity
    00:00 +8°C° 0 mm 0 mps 742 mmHg 83%
    01:00 +8°C° 0 mm 0 mps 742 mmHg 82%
    02:00 +9°C° 0 mm 1 mps 742 mmHg 81%
    03:00 +9°C° 0 mm 1 mps 742 mmHg 81%
    04:00 +9°C° 0 mm 1 mps 742 mmHg 81%
    05:00 +9°C° 0 mm 1 mps 742 mmHg 81%
    06:00 +11°C° 0 mm 1 mps 742 mmHg 72%
    07:00 +14°C° 0 mm 1 mps 742 mmHg 63%
    08:00 +16°C° 0 mm 0 mps 742 mmHg 53%
    09:00 +20°C° 0 mm 1 mps 742 mmHg 47%
    10:00 +22°C° 0 mm 1 mps 742 mmHg 40%
    11:00 +24°C° 0 mm 1 mps 742 mmHg 34%
    12:00 +23°C° 0 mm 1 mps 742 mmHg 37%
    13:00 +22°C° 0 mm 1 mps 741 mmHg 40%
    14:00 +21°C° 0 mm 1 mps 741 mmHg 44%
    15:00 +21°C° 0 mm 1 mps 741 mmHg 49%
    16:00 +20°C° 0 mm 1 mps 741 mmHg 54%
    17:00 +19°C° 0 mm 1 mps 741 mmHg 59%
    18:00 +15°C° 0 mm 1 mps 741 mmHg 70%
    19:00 +13°C° 0 mm 1 mps 741 mmHg 80%
    20:00 +11°C° 0 mm 1 mps 742 mmHg 91%
    21:00 +11°C° 0 mm 1 mps 741 mmHg 91%
    22:00 +10°C° 0 mm 1 mps 741 mmHg 91%
    23:00 +10°C° 0 mm 1 mps 741 mmHg 91%

    31 March, Sunday

    Time Temperature Precipitation Wind Pressure Humidity
    00:00 +9°C° 0 mm 1 mps 741 mmHg 91%
    01:00 +9°C° 0 mm 1 mps 740 mmHg 91%
    02:00 +9°C° 0 mm 1 mps 740 mmHg 90%
    03:00 +8°C° 0 mm 1 mps 740 mmHg 90%
    04:00 +8°C° 0 mm 1 mps 740 mmHg 89%
    05:00 +8°C° 0 mm 1 mps 740 mmHg 89%
    06:00 +10°C° 0 mm 1 mps 740 mmHg 78%
    07:00 +13°C° 0 mm 1 mps 740 mmHg 68%
    08:00 +15°C° 0 mm 1 mps 741 mmHg 57%
    09:00 +17°C° 0 mm 2 mps 741 mmHg 49%
    10:00 +19°C° 0 mm 2 mps 741 mmHg 40%
    11:00 +21°C° 0 mm 3 mps 741 mmHg 32%
    12:00 +21°C° 0 mm 3 mps 741 mmHg 32%
    13:00 +21°C° 0 mm 3 mps 740 mmHg 32%
    14:00 +22°C° 0 mm 3 mps 740 mmHg 32%
    15:00 +20°C° 0 mm 3 mps 740 mmHg 38%
    16:00 +19°C° 0 mm 3 mps 740 mmHg 44%
    17:00 +17°C° 0 mm 3 mps 740 mmHg 50%
    18:00 +15°C° 0 mm 2 mps 740 mmHg 57%
    19:00 +13°C° 0 mm 2 mps 741 mmHg 63%
    20:00 +10°C° 0 mm 2 mps 741 mmHg 70%
    21:00 +10°C° 0 mm 2 mps 741 mmHg 72%
    22:00 +9°C° 0 mm 2 mps 741 mmHg 75%
    23:00 +9°C° 0 mm 2 mps 741 mmHg 77%
    Show more